| time (UTC) | temp F | wind direction | speed MPH | gust MPH | rain 1hr in | rain 24hr in | rain mn in | humidity % | barometer mb |
| 20260505153045 | 34 | 306 | 21.0 | 32.0 | 0.00 | 0.00 | 0.00 | 65 | 1006.7 |
| 20260505151540 | 35 | 306 | 21.0 | 28.0 | 0.00 | 0.00 | 0.00 | 64 | 1006.4 |
| 20260505124542 | 34 | 316 | 12.0 | 20.0 | 0.00 | 0.00 | 0.00 | 75 | 1004.7 |
| 20260505123042 | 34 | 313 | 14.0 | 19.0 | 0.00 | 0.00 | 0.00 | 74 | 1004.5 |
| 20260505121540 | 35 | 311 | 17.0 | 23.0 | 0.00 | 0.00 | 0.00 | 75 | 1004.5 |
| 20260505120045 | 35 | 297 | 17.0 | 24.0 | 0.00 | 0.00 | 0.00 | 76 | 1004.2 |
| 20260505114544 | 35 | 312 | 19.0 | 26.0 | 0.00 | 0.00 | 0.00 | 75 | 1004.0 |
| 20260505113049 | 36 | 306 | 19.0 | 26.0 | 0.00 | 0.00 | 0.00 | 77 | 1003.7 |
| 20260505111543 | 36 | 287 | 18.0 | 25.0 | 0.00 | 0.00 | 0.00 | 77 | 1003.4 |
| 20260505101556 | 37 | 302 | 14.0 | 21.0 | 0.00 | 0.00 | 0.00 | 75 | 1002.6 |
| 20260505100100 | 37 | 311 | 15.0 | 21.0 | 0.00 | 0.00 | 0.00 | 75 | 1002.6 |
| 20260505094544 | 37 | 299 | 14.0 | 23.0 | 0.00 | 0.00 | 0.00 | 75 | 1002.4 |
| 20260505093051 | 37 | 308 | 16.0 | 23.0 | 0.00 | 0.00 | 0.00 | 74 | 1002.3 |
| 20260505091542 | 37 | 306 | 16.0 | 21.0 | 0.00 | 0.00 | 0.00 | 73 | 1002.2 |
| 20260505090037 | 38 | 294 | 15.0 | 19.0 | 0.00 | 0.00 | 0.00 | 73 | 1002.0 |
| 20260505084546 | 38 | 301 | 16.0 | 22.0 | 0.00 | 0.00 | 0.00 | 74 | 1001.9 |
| 20260505083044 | 38 | 298 | 15.0 | 20.0 | 0.00 | 0.00 | 0.00 | 75 | 1001.9 |
| 20260505081556 | 38 | 298 | 14.0 | 19.0 | 0.00 | 0.00 | 0.00 | 75 | 1001.7 |
| 20260505080053 | 38 | 296 | 13.0 | 17.0 | 0.00 | 0.00 | 0.00 | 73 | 1001.6 |
| 20260505074542 | 39 | 298 | 15.0 | 20.0 | 0.00 | 0.00 | 0.00 | 72 | 1001.5 |
| 20260505073045 | 39 | 305 | 12.0 | 18.0 | 0.00 | 0.00 | 0.00 | 72 | 1001.5 |
| 20260505071551 | 40 | 296 | 13.0 | 18.0 | 0.00 | 0.00 | 0.00 | 72 | 1001.6 |
| 20260505070045 | 40 | 292 | 11.0 | 18.0 | 0.00 | 0.00 | 0.00 | 72 | 1001.5 |
| 20260505064543 | 40 | 300 | 14.0 | 19.0 | 0.00 | 0.00 | 0.00 | 71 | 1001.5 |
| 20260505063048 | 41 | 298 | 14.0 | 20.0 | 0.00 | 0.00 | 0.00 | 71 | 1001.5 |
| 20260505061541 | 41 | 309 | 14.0 | 19.0 | 0.00 | 0.00 | 0.00 | 69 | 1001.6 |
| 20260505060050 | 41 | 298 | 13.0 | 17.0 | 0.00 | 0.00 | 0.00 | 70 | 1001.6 |
| 20260505054544 | 41 | 308 | 9.0 | 14.0 | 0.00 | 0.00 | 0.00 | 69 | 1001.5 |
| 20260505053047 | 41 | 322 | 10.0 | 14.0 | 0.00 | 0.00 | 0.00 | 69 | 1001.5 |
| 20260505051545 | 41 | 327 | 13.0 | 18.0 | 0.00 | 0.00 | 0.00 | 69 | 1001.6 |
| 20260505041537 | 43 | 325 | 12.0 | 17.0 | 0.00 | 0.00 | 0.00 | 62 | 1001.2 |
| 20260505040046 | 43 | 299 | 14.0 | 19.0 | 0.00 | 0.00 | 0.00 | 59 | 1001.1 |
| 20260505034546 | 44 | 304 | 14.0 | 20.0 | 0.00 | 0.00 | 0.00 | 61 | 1001.0 |
| 20260505033038 | 44 | 290 | 13.0 | 17.0 | 0.00 | 0.00 | 0.00 | 60 | 1000.8 |
| 20260505031543 | 44 | 294 | 14.0 | 19.0 | 0.00 | 0.00 | 0.00 | 57 | 1000.7 |
| 20260505030044 | 44 | 287 | 16.0 | 22.0 | 0.00 | 0.00 | 0.00 | 57 | 1000.6 |
| 20260505024544 | 44 | 298 | 18.0 | 24.0 | 0.00 | 0.00 | 0.00 | 56 | 1000.5 |
| 20260505023050 | 45 | 278 | 18.0 | 23.0 | 0.00 | 0.00 | 0.00 | 56 | 1000.4 |
| 20260505021541 | 44 | 300 | 18.0 | 23.0 | 0.00 | 0.00 | 0.00 | 57 | 1000.2 |
| 20260505020041 | 44 | 304 | 17.0 | 22.0 | 0.00 | 0.00 | 0.00 | 58 | 1000.0 |
| 20260505014539 | 44 | 291 | 15.0 | 22.0 | 0.00 | 0.00 | 0.00 | 60 | 999.9 |
| 20260505013043 | 44 | 288 | 14.0 | 24.0 | 0.00 | 0.00 | 0.00 | 60 | 999.7 |
| 20260505011544 | 45 | 293 | 17.0 | 28.0 | 0.00 | 0.00 | 0.00 | 60 | 999.5 |
| 20260505010104 | 45 | 283 | 18.0 | 28.0 | 0.00 | 0.00 | 0.00 | 60 | 999.3 |
| 20260505004540 | 45 | 266 | 22.0 | 34.0 | 0.00 | 0.00 | 0.00 | 62 | 999.3 |
| 20260505003046 | 45 | 285 | 26.0 | 35.0 | 0.00 | 0.00 | 0.00 | 60 | 999.1 |
| 20260505001544 | 46 | 286 | 20.0 | 32.0 | 0.00 | 0.00 | 0.00 | 60 | 998.9 |
| 20260505000048 | 46 | 286 | 19.0 | 30.0 | 0.00 | 0.00 | 0.00 | 62 | 998.5 |
| 20260504234540 | 46 | 285 | 22.0 | 30.0 | 0.00 | 0.00 | 0.00 | 61 | 998.4 |
| 20260504233040 | 47 | 298 | 20.0 | 29.0 | 0.00 | 0.00 | 0.00 | 59 | 998.1 |
| 20260504231544 | 47 | 303 | 22.0 | 28.0 | 0.00 | 0.00 | 0.00 | 57 | 998.1 |
| 20260504230047 | 47 | 302 | 21.0 | 28.0 | 0.00 | 0.00 | 0.00 | 58 | 998.2 |
| 20260504224545 | 47 | 288 | 22.0 | 36.0 | 0.00 | 0.00 | 0.00 | 58 | 998.0 |
| 20260504223045 | 47 | 292 | 24.0 | 33.0 | 0.00 | 0.00 | 0.00 | 59 | 997.8 |
| 20260504221558 | 48 | 298 | 26.0 | 38.0 | 0.00 | 0.00 | 0.00 | 58 | 997.4 |
| 20260504220044 | 48 | 288 | 26.0 | 33.0 | 0.00 | 0.00 | 0.00 | 57 | 997.2 |
| 20260504214543 | 48 | 298 | 17.0 | 32.0 | 0.00 | 0.00 | 0.00 | 59 | 997.0 |
| 20260504213052 | 48 | 290 | 28.0 | 39.0 | 0.00 | 0.00 | 0.00 | 56 | 996.8 |
| 20260504211544 | 48 | 300 | 24.0 | 38.0 | 0.00 | 0.00 | 0.00 | 57 | 996.6 |
| 20260504210046 | 48 | 294 | 24.0 | 36.0 | 0.00 | 0.00 | 0.00 | 58 | 996.3 |
| 20260504204545 | 48 | 283 | 23.0 | 36.0 | 0.00 | 0.00 | 0.00 | 59 | 996.2 |
| 20260504203049 | 49 | 279 | 25.0 | 36.0 | 0.00 | 0.00 | 0.00 | 58 | 995.8 |
| 20260504201540 | 49 | 308 | 26.0 | 35.0 | 0.00 | 0.00 | 0.00 | 57 | 995.7 |
| 20260504200046 | 49 | 301 | 26.0 | 38.0 | 0.00 | 0.00 | 0.00 | 59 | 995.4 |
| 20260504194554 | 50 | 275 | 28.0 | 37.0 | 0.00 | 0.00 | 0.00 | 58 | 995.0 |
| 20260504193044 | 49 | 284 | 30.0 | 39.0 | 0.00 | 0.00 | 0.00 | 56 | 994.9 |
| 20260504191543 | 49 | 271 | 27.0 | 33.0 | 0.00 | 0.00 | 0.00 | 57 | 994.8 |
| 20260504190038 | 49 | 302 | 21.0 | 35.0 | 0.00 | 0.00 | 0.00 | 58 | 994.5 |
| 20260504184545 | 49 | 279 | 19.0 | 30.0 | 0.00 | 0.00 | 0.00 | 59 | 994.3 |
| 20260504183044 | 49 | 301 | 25.0 | 38.0 | 0.00 | 0.00 | 0.00 | 59 | 994.0 |
| 20260504181548 | 49 | 302 | 30.0 | 37.0 | 0.00 | 0.00 | 0.00 | 59 | 993.8 |
| 20260504180050 | 49 | 296 | 27.0 | 42.0 | 0.00 | 0.00 | 0.00 | 60 | 993.6 |
| 20260504174543 | 50 | 300 | 27.0 | 35.0 | 0.00 | 0.00 | 0.00 | 60 | 993.3 |
| 20260504173046 | 50 | 306 | 25.0 | 34.0 | 0.00 | 0.00 | 0.00 | 62 | 993.2 |
| 20260504171546 | 50 | 312 | 23.0 | 44.0 | 0.00 | 0.00 | 0.00 | 62 | 993.1 |